Erie, CO

10:39 PM MDT on June 26, 2017 (GMT -0600)
Erie Municipal Airport

Weather History for KEIK - July, 2013

Change the Weather History Date:

Tuesday, July 9, 2013

  Actual Average (KBJC) Record (KBJC)
Temperature  
Mean Temperature 78 °F -  
Max Temperature 97 °F 86 °F 97 °F (1989)
Min Temperature 59 °F 61 °F 48 °F (2013)
Cooling Degree Days 13    
Growing Degree Days 28 (Base 50)    
Moisture  
Dew Point 40 °F    
Average Humidity 30    
Maximum Humidity 66    
Minimum Humidity 10    
Precipitation  
Precipitation 0.00 in - - ()
Sea Level Pressure  
Sea Level Pressure 30.18 in    
Wind  
Wind Speed 3 mph (ESE)    
Max Wind Speed 14 mph    
Max Gust Speed 34 mph    
Visibility 10 miles    
Events Rain    
Averages and records for this station are not official NWS values.
T = Trace of Precipitation, MM = Missing Value Source: NWS Daily Summary

Daily Weather History Graph

Daily Weather History Graph

Search for Another Location

Airport or City:

Trip Planner

Search our weather history database for the weather conditions in past years. The results will help you decide how hot, cold, wet, or windy it might be!

Date:

Astronomy

Jul. 09, 2013 Rise Set
Actual Time 5:39 AM MDT 8:30 PM MDT
Civil Twilight 5:07 AM MDT 9:02 PM MDT
Nautical Twilight 4:26 AM MDT 9:43 PM MDT
Astronomical Twilight 3:40 AM MDT 10:30 PM MDT
Moon 7:06 AM MDT (7/9) 9:09 PM MDT (7/9)
Length of Visible Light 15h 55m
Length of Day
14h 50m
New Moon, 2% of the Moon is Illuminated
Jul 9
New Moon
Jul 15
First Quarter
Jul 22
Full
Jul 29
Last Quarter
Aug 6
New

Hourly Weather History & Observations

Time (MDT) Temp. Dew Point Humidity Pressure Visibility Wind Dir Wind Speed Gust Speed Precip Events Conditions
12:15 AM 67.8 °F 46.2 °F 46% 30.16 in 10.0 mi Calm Calm - N/A   Clear
12:35 AM 64.8 °F 48.7 °F 56% 30.16 in 10.0 mi SW 3.5 mph - N/A   Clear
12:55 AM 63.5 °F 48.2 °F 57% 30.16 in 10.0 mi Calm Calm - N/A   Clear
1:15 AM 63.3 °F 47.8 °F 57% 30.15 in 10.0 mi Calm Calm - N/A   Clear
1:35 AM 63.3 °F 47.7 °F 57% 30.16 in 10.0 mi Calm Calm - N/A   Clear
1:55 AM 63.7 °F 47.7 °F 56% 30.16 in 10.0 mi Calm Calm - N/A   Clear
2:15 AM 61.7 °F 47.3 °F 59% 30.16 in 10.0 mi Calm Calm - N/A   Clear
2:35 AM 63.1 °F 48.6 °F 59% 30.15 in 10.0 mi SSE 3.5 mph - N/A   Clear
2:55 AM 66.4 °F 48.7 °F 53% 30.15 in 10.0 mi Calm Calm - N/A   Clear
3:15 AM 64.9 °F 47.7 °F 54% 30.16 in 10.0 mi NNE 4.6 mph - N/A   Clear
3:35 AM 62.2 °F 48.4 °F 60% 30.15 in 10.0 mi North 3.5 mph - N/A   Clear
3:55 AM 61.7 °F 47.3 °F 59% 30.15 in 10.0 mi North 3.5 mph - N/A   Clear
4:15 AM 60.3 °F 48.4 °F 65% 30.16 in 10.0 mi Calm Calm - N/A   Clear
4:35 AM 59.7 °F 48.2 °F 66% 30.17 in 10.0 mi SSW 5.8 mph - N/A   Clear
4:55 AM 61.5 °F 47.7 °F 60% 30.17 in 10.0 mi SSW 3.5 mph - N/A   Clear
5:15 AM 61.9 °F 47.8 °F 60% 30.17 in 10.0 mi Calm Calm - N/A   Clear
5:35 AM 63.9 °F 47.8 °F 56% 30.17 in 10.0 mi SE 3.5 mph - N/A   Clear
5:55 AM 64.8 °F 48.0 °F 55% 30.17 in 10.0 mi Calm Calm - N/A   Clear
6:15 AM 65.1 °F 50.0 °F 58% 30.18 in 10.0 mi Calm Calm - N/A   Clear
6:35 AM 67.3 °F 50.5 °F 55% 30.18 in 10.0 mi Calm Calm - N/A   Clear
6:55 AM 69.1 °F 47.3 °F 46% 30.19 in 10.0 mi South 4.6 mph 16.1 mph N/A   Scattered Clouds
7:15 AM 70.3 °F 49.6 °F 48% 30.19 in 10.0 mi Calm Calm - N/A   Clear
7:35 AM 74.1 °F 48.4 °F 40% 30.19 in 10.0 mi SSW 3.5 mph - N/A   Clear
7:55 AM 75.9 °F 46.4 °F 35% 30.20 in 10.0 mi Calm Calm - N/A   Clear
8:15 AM 77.5 °F 46.4 °F 33% 30.20 in 10.0 mi Calm Calm - N/A   Clear
8:35 AM 81.1 °F 41.0 °F 24% 30.21 in 10.0 mi Calm Calm - N/A   Clear
8:55 AM 83.3 °F 41.2 °F 22% 30.21 in 10.0 mi Calm Calm - N/A   Clear
9:15 AM 86.0 °F 38.5 °F 19% 30.21 in 10.0 mi Calm Calm - N/A   Clear
9:35 AM 87.8 °F 37.4 °F 17% 30.21 in 10.0 mi NE 3.5 mph - N/A   Clear
9:55 AM 88.0 °F 36.5 °F 16% 30.21 in 10.0 mi Calm Calm - N/A   Clear
10:15 AM 89.8 °F 37.9 °F 16% 30.21 in 10.0 mi Calm Calm - N/A   Clear
10:21 AM 89.6 °F 36.5 °F 15% 30.21 in 10.0 mi Calm Calm - N/A   Clear
11:35 AM 91.4 °F 32.7 °F 12% 30.20 in 10.0 mi NE 10.4 mph - N/A   Clear
11:55 AM 93.0 °F 33.4 °F 12% 30.20 in 10.0 mi North 3.5 mph - N/A   Clear
12:15 PM 92.7 °F 32.2 °F 12% 30.20 in 10.0 mi SSW 5.8 mph - N/A   Clear
12:35 PM 93.9 °F 31.8 °F 11% 30.19 in 10.0 mi ESE 5.8 mph - N/A   Clear
12:55 PM 95.0 °F 31.8 °F 11% 30.19 in 10.0 mi ENE 3.5 mph - N/A   Clear
1:15 PM 95.9 °F 32.0 °F 11% 30.18 in 10.0 mi ENE 6.9 mph - N/A   Clear
1:35 PM 93.2 °F 30.9 °F 11% 30.18 in 10.0 mi North 9.2 mph - N/A   Clear
1:55 PM 93.9 °F 31.6 °F 11% 30.18 in 10.0 mi Calm Calm - N/A   Clear
2:15 PM 93.9 °F 30.6 °F 11% 30.18 in 10.0 mi Calm Calm - N/A   Clear
2:35 PM 97.0 °F 30.7 °F 10% 30.17 in 10.0 mi ESE 8.1 mph - N/A   Clear
2:55 PM 93.2 °F 31.3 °F 11% 30.17 in 10.0 mi South 6.9 mph - N/A   Clear
3:15 PM 92.3 °F 32.2 °F 12% 30.17 in 10.0 mi SSW 8.1 mph 16.1 mph N/A   Clear
3:35 PM 92.3 °F 33.1 °F 12% 30.17 in 10.0 mi SW 12.7 mph - N/A   Clear
3:55 PM 91.0 °F 32.9 °F 13% 30.17 in 10.0 mi SSW 11.5 mph 17.3 mph N/A   Clear
4:15 PM 88.7 °F 36.0 °F 15% 30.18 in 5.0 mi West 5.8 mph 34.5 mph N/A Rain Light Rain
4:35 PM 90.9 °F 32.5 °F 13% 30.17 in 10.0 mi SE 13.8 mph 25.3 mph N/A   Scattered Clouds
4:55 PM 90.0 °F 34.2 °F 14% 30.17 in 10.0 mi WSW 5.8 mph - N/A   Clear
5:15 PM 93.6 °F 32.9 °F 12% 30.17 in 10.0 mi NW 3.5 mph - N/A   Clear
5:35 PM 94.1 °F 32.0 °F 11% 30.16 in 10.0 mi Calm Calm - N/A   Clear
5:55 PM 94.1 °F 32.0 °F 11% 30.16 in 10.0 mi SE 3.5 mph - N/A   Clear
6:15 PM 93.9 °F 31.8 °F 11% 30.16 in 10.0 mi Calm Calm - N/A   Clear
6:35 PM 90.9 °F 33.6 °F 13% 30.17 in 10.0 mi North 8.1 mph 17.3 mph N/A   Clear
6:55 PM 90.7 °F 34.5 °F 14% 30.16 in 10.0 mi NNE 5.8 mph - N/A   Clear
7:15 PM 88.9 °F 35.8 °F 15% 30.17 in 10.0 mi SSW 11.5 mph - N/A   Clear
7:35 PM 85.1 °F 39.7 °F 20% 30.17 in 10.0 mi SSW 6.9 mph - N/A   Clear
7:55 PM 83.7 °F 40.1 °F 21% 30.17 in 10.0 mi South 5.8 mph - N/A   Clear
8:15 PM 82.4 °F 40.6 °F 23% 30.17 in 10.0 mi South 4.6 mph - N/A   Clear
8:35 PM 78.1 °F 43.0 °F 29% 30.19 in 10.0 mi NE 8.1 mph - N/A   Clear
8:55 PM 82.9 °F 37.8 °F 20% 30.20 in 10.0 mi ENE 8.1 mph - N/A   Clear
9:15 PM 79.5 °F 37.4 °F 22% 30.20 in 10.0 mi East 5.8 mph - N/A   Clear
9:35 PM 78.6 °F 37.6 °F 23% 30.21 in 10.0 mi ENE 5.8 mph - N/A   Clear
9:55 PM 77.4 °F 38.7 °F 25% 30.22 in 10.0 mi East 4.6 mph - N/A   Clear
10:15 PM 76.1 °F 38.1 °F 25% 30.23 in 10.0 mi ENE 3.5 mph - N/A   Clear
10:35 PM 74.1 °F 37.9 °F 27% 30.22 in 10.0 mi Calm Calm - N/A   Clear
10:55 PM 70.0 °F 39.4 °F 33% 30.23 in 10.0 mi Calm Calm - N/A   Clear
11:15 PM 71.6 °F 40.5 °F 32% 30.24 in 10.0 mi Calm Calm - N/A   Clear
11:35 PM 71.6 °F 41.0 °F 33% 30.25 in 10.0 mi Calm Calm - N/A   Clear
11:55 PM 72.0 °F 41.4 °F 33% 30.25 in 10.0 mi NNE 3.5 mph - N/A   Clear